Time,TemperatureF,DewpointF,PressureIn,WindDirection,WindDirectionDegrees,WindSpeedMPH,WindSpeedGustMPH,Humidity,HourlyPrecipIn,Conditions,Clouds,dailyrainin,SoftwareType,DateUTC
2013-02-11 00:02:00,22.0,21.0,29.72,North,4,12.0,23.0,94,0.00,,,0.00,,2013-02-11 06:02:00,
2013-02-11 00:11:00,22.0,21.0,29.72,North,4,12.0,23.0,94,0.00,,,0.00,,2013-02-11 06:11:00,
2013-02-11 00:21:00,22.0,21.0,29.73,NNE,19,12.0,23.0,94,0.00,,,0.00,,2013-02-11 06:21:00,
2013-02-11 00:32:00,22.0,21.0,29.73,North,4,12.0,22.0,94,0.00,,,0.00,,2013-02-11 06:32:00,
2013-02-11 00:42:00,21.0,20.0,29.74,NW,319,11.0,24.0,94,0.00,,,0.00,,2013-02-11 06:42:00,
2013-02-11 00:51:00,21.0,20.0,29.74,NW,319,11.0,24.0,94,0.00,,,0.00,,2013-02-11 06:51:00,
2013-02-11 01:01:00,21.0,20.0,29.74,North,349,13.0,24.0,94,0.00,,,0.00,,2013-02-11 07:01:00,
2013-02-11 01:11:00,21.0,20.0,29.75,North,9,12.0,22.0,94,0.00,,,0.00,,2013-02-11 07:11:00,
2013-02-11 01:21:00,21.0,20.0,29.75,North,9,12.0,22.0,94,0.00,,,0.00,,2013-02-11 07:21:00,
2013-02-11 01:32:00,21.0,20.0,29.75,NNE,13,11.0,20.0,94,0.00,,,0.00,,2013-02-11 07:32:00,
2013-02-11 01:41:00,21.0,20.0,29.76,North,1,10.0,17.0,94,0.00,,,0.00,,2013-02-11 07:41:00,
2013-02-11 01:52:00,21.0,20.0,29.76,North,1,10.0,17.0,94,0.00,,,0.00,,2013-02-11 07:52:00,
2013-02-11 02:01:00,21.0,19.0,29.76,NNE,18,9.0,21.0,93,0.00,,,0.00,,2013-02-11 08:01:00,
2013-02-11 02:11:00,21.0,19.0,29.76,NNE,18,9.0,21.0,93,0.00,,,0.00,,2013-02-11 08:11:00,
2013-02-11 02:21:00,21.0,19.0,29.77,North,354,11.0,23.0,93,0.00,,,0.00,,2013-02-11 08:21:00,
2013-02-11 02:32:00,21.0,19.0,29.77,North,359,12.0,24.0,93,0.00,,,0.00,,2013-02-11 08:32:00,
2013-02-11 02:42:00,21.0,19.0,29.78,North,11,11.0,21.0,93,0.00,,,0.00,,2013-02-11 08:42:00,
2013-02-11 02:52:00,21.0,19.0,29.78,North,11,11.0,21.0,93,0.00,,,0.00,,2013-02-11 08:52:00,
2013-02-11 03:01:00,21.0,19.0,29.78,North,11,11.0,21.0,93,0.00,,,0.00,,2013-02-11 09:01:00,
2013-02-11 03:12:00,21.0,19.0,29.78,North,11,11.0,21.0,93,0.00,,,0.00,,2013-02-11 09:12:00,
2013-02-11 03:21:00,21.0,19.0,29.79,NW,316,8.0,17.0,92,0.00,,,0.00,,2013-02-11 09:21:00,
2013-02-11 03:32:00,20.0,18.0,29.79,NNW,330,11.0,18.0,92,0.00,,,0.00,,2013-02-11 09:32:00,
2013-02-11 03:41:00,20.0,18.0,29.79,NNW,330,11.0,18.0,92,0.00,,,0.00,,2013-02-11 09:41:00,
2013-02-11 03:51:00,20.0,18.0,29.79,North,1,8.0,21.0,92,0.00,,,0.00,,2013-02-11 09:51:00,
2013-02-11 04:01:00,19.0,17.0,29.80,WNW,300,9.0,17.0,91,0.00,,,0.00,,2013-02-11 10:01:00,
2013-02-11 04:11:00,19.0,17.0,29.80,WNW,300,9.0,17.0,91,0.00,,,0.00,,2013-02-11 10:11:00,
2013-02-11 04:21:00,19.0,17.0,29.80,NW,314,7.0,15.0,92,0.00,,,0.00,,2013-02-11 10:21:00,
2013-02-11 04:31:00,18.0,16.0,29.81,NNW,340,10.0,21.0,91,0.00,,,0.00,,2013-02-11 10:31:00,
2013-02-11 04:42:00,18.0,16.0,29.81,NNW,340,10.0,21.0,91,0.00,,,0.00,,2013-02-11 10:42:00,
2013-02-11 04:51:00,18.0,16.0,29.82,North,350,10.0,19.0,91,0.00,,,0.00,,2013-02-11 10:51:00,
2013-02-11 05:01:00,18.0,16.0,29.82,NNW,335,11.0,20.0,90,0.00,,,0.00,,2013-02-11 11:01:00,
2013-02-11 05:11:00,18.0,16.0,29.82,NNW,335,11.0,20.0,90,0.00,,,0.00,,2013-02-11 11:11:00,
2013-02-11 05:22:00,18.0,16.0,29.83,North,351,10.0,21.0,90,0.00,,,0.00,,2013-02-11 11:22:00,
2013-02-11 05:32:00,18.0,16.0,29.83,NNW,336,9.0,17.0,90,0.00,,,0.00,,2013-02-11 11:32:00,
2013-02-11 05:42:00,18.0,16.0,29.83,NNW,347,10.0,17.0,90,0.00,,,0.00,,2013-02-11 11:42:00,
2013-02-11 05:52:00,18.0,16.0,29.83,NNW,347,10.0,17.0,90,0.00,,,0.00,,2013-02-11 11:52:00,
2013-02-11 06:03:00,18.0,16.0,29.85,NNW,333,12.0,21.0,90,0.00,,,0.00,,2013-02-11 12:03:00,
2013-02-11 06:12:00,18.0,16.0,29.85,NNW,333,12.0,21.0,90,0.00,,,0.00,,2013-02-11 12:12:00,
2013-02-11 06:22:00,17.0,15.0,29.85,NW,307,9.0,18.0,90,0.00,,,0.00,,2013-02-11 12:22:00,
2013-02-11 06:32:00,17.0,15.0,29.85,NW,315,9.0,16.0,90,0.00,,,0.00,,2013-02-11 12:32:00,
2013-02-11 06:42:00,16.0,14.0,29.86,NNW,335,8.0,17.0,90,0.00,,,0.00,,2013-02-11 12:42:00,
2013-02-11 06:52:00,16.0,14.0,29.86,NNW,335,8.0,17.0,90,0.00,,,0.00,,2013-02-11 12:52:00,
2013-02-11 07:02:00,16.0,14.0,29.87,NNW,346,8.0,15.0,91,0.00,,,0.00,,2013-02-11 13:02:00,
2013-02-11 07:11:00,16.0,14.0,29.88,NW,315,7.0,16.0,90,0.00,,,0.00,,2013-02-11 13:11:00,
2013-02-11 07:22:00,16.0,14.0,29.88,NW,315,7.0,16.0,90,0.00,,,0.00,,2013-02-11 13:22:00,
2013-02-11 07:32:00,16.0,14.0,29.88,NW,311,10.0,17.0,90,0.00,,,0.00,,2013-02-11 13:32:00,
2013-02-11 07:42:00,16.0,14.0,29.88,NW,311,10.0,17.0,90,0.00,,,0.00,,2013-02-11 13:42:00,
2013-02-11 07:52:00,16.0,14.0,29.89,NNW,341,7.0,12.0,90,0.00,,,0.00,,2013-02-11 13:52:00,
2013-02-11 08:02:00,16.0,13.0,29.89,NW,311,6.0,18.0,89,0.00,,,0.00,,2013-02-11 14:02:00,
2013-02-11 08:11:00,16.0,13.0,29.89,NW,311,6.0,18.0,89,0.00,,,0.00,,2013-02-11 14:11:00,
2013-02-11 08:22:00,15.0,12.0,29.90,NW,315,8.0,15.0,88,0.00,,,0.00,,2013-02-11 14:22:00,
2013-02-11 08:33:00,15.0,12.0,29.90,NW,307,9.0,17.0,88,0.00,,,0.00,,2013-02-11 14:33:00,
2013-02-11 08:42:00,15.0,12.0,29.90,NW,307,9.0,17.0,88,0.00,,,0.00,,2013-02-11 14:42:00,
2013-02-11 08:52:00,15.0,12.0,29.91,NW,321,7.0,14.0,89,0.00,,,0.00,,2013-02-11 14:52:00,
2013-02-11 09:02:00,15.0,12.0,29.91,NW,308,6.0,18.0,89,0.00,,,0.00,,2013-02-11 15:02:00,
2013-02-11 09:11:00,15.0,12.0,29.91,NW,308,6.0,18.0,89,0.00,,,0.00,,2013-02-11 15:11:00,
2013-02-11 09:22:00,15.0,12.0,29.92,NNW,331,8.0,16.0,88,0.00,,,0.00,,2013-02-11 15:22:00,
2013-02-11 09:32:00,15.0,12.0,29.92,WNW,290,8.0,15.0,87,0.00,,,0.00,,2013-02-11 15:32:00,
2013-02-11 09:42:00,15.0,12.0,29.93,WNW,301,7.0,13.0,88,0.00,,,0.00,,2013-02-11 15:42:00,
2013-02-11 09:52:00,15.0,12.0,29.93,WNW,301,7.0,13.0,88,0.00,,,0.00,,2013-02-11 15:52:00,
2013-02-11 10:02:00,15.0,12.0,29.93,NW,307,5.0,15.0,87,0.00,,,0.00,,2013-02-11 16:02:00,
2013-02-11 10:11:00,15.0,12.0,29.93,NW,307,5.0,15.0,87,0.00,,,0.00,,2013-02-11 16:11:00,
2013-02-11 10:22:00,16.0,13.0,29.93,NW,321,8.0,14.0,87,0.00,,,0.00,,2013-02-11 16:22:00,
2013-02-11 10:32:00,16.0,13.0,29.94,NNW,338,6.0,12.0,87,0.00,,,0.00,,2013-02-11 16:32:00,
2013-02-11 10:42:00,16.0,13.0,29.94,WNW,290,6.0,13.0,86,0.00,,,0.00,,2013-02-11 16:42:00,
2013-02-11 10:52:00,16.0,13.0,29.94,WNW,290,6.0,13.0,86,0.00,,,0.00,,2013-02-11 16:52:00,
2013-02-11 11:02:00,16.0,12.0,29.95,NNW,335,7.0,16.0,85,0.00,,,0.00,,2013-02-11 17:02:00,
2013-02-11 11:11:00,16.0,12.0,29.95,NNW,335,7.0,16.0,85,0.00,,,0.00,,2013-02-11 17:11:00,
2013-02-11 11:22:00,16.0,12.0,29.95,NW,319,7.0,17.0,85,0.00,,,0.00,,2013-02-11 17:22:00,
2013-02-11 11:32:00,17.0,13.0,29.95,NW,311,8.0,15.0,84,0.00,,,0.00,,2013-02-11 17:32:00,
2013-02-11 11:42:00,17.0,13.0,29.95,NW,311,8.0,15.0,84,0.00,,,0.00,,2013-02-11 17:42:00,
2013-02-11 11:52:00,17.0,13.0,29.96,North,351,8.0,18.0,83,0.00,,,0.00,,2013-02-11 17:52:00,
2013-02-11 12:02:00,17.0,13.0,29.96,NNW,332,7.0,16.0,83,0.00,,,0.00,,2013-02-11 18:02:00,
2013-02-11 12:11:00,17.0,13.0,29.96,NNW,332,7.0,16.0,83,0.00,,,0.00,,2013-02-11 18:11:00,
2013-02-11 12:21:00,18.0,14.0,29.95,WNW,288,7.0,15.0,83,0.00,,,0.00,,2013-02-11 18:21:00,
2013-02-11 12:32:00,19.0,14.0,29.95,NNW,335,4.0,13.0,82,0.00,,,0.00,,2013-02-11 18:32:00,
2013-02-11 12:42:00,19.0,14.0,29.95,NNW,335,4.0,13.0,82,0.00,,,0.00,,2013-02-11 18:42:00,
2013-02-11 12:52:00,19.0,14.0,29.95,WNW,302,5.0,14.0,82,0.00,,,0.00,,2013-02-11 18:52:00,
2013-02-11 13:02:00,19.0,14.0,29.96,NNW,338,5.0,13.0,82,0.00,,,0.00,,2013-02-11 19:02:00,
2013-02-11 13:11:00,19.0,14.0,29.96,NNW,338,5.0,13.0,82,0.00,,,0.00,,2013-02-11 19:11:00,
2013-02-11 13:21:00,20.0,15.0,29.96,NW,325,7.0,11.0,80,0.00,,,0.00,,2013-02-11 19:21:00,
2013-02-11 13:32:00,20.0,15.0,29.96,NW,326,5.0,12.0,81,0.00,,,0.00,,2013-02-11 19:32:00,
2013-02-11 13:41:00,20.0,15.0,29.96,NW,326,5.0,12.0,81,0.00,,,0.00,,2013-02-11 19:41:00,
2013-02-11 13:51:00,21.0,16.0,29.96,NW,326,6.0,13.0,80,0.00,,,0.00,,2013-02-11 19:51:00,
2013-02-11 14:01:00,21.0,16.0,29.96,NW,316,5.0,11.0,79,0.00,,,0.00,,2013-02-11 20:01:00,
2013-02-11 14:11:00,22.0,16.0,29.95,NNW,335,4.0,9.0,78,0.00,,,0.00,,2013-02-11 20:11:00,
2013-02-11 14:21:00,22.0,16.0,29.95,NNW,335,4.0,9.0,78,0.00,,,0.00,,2013-02-11 20:21:00,
2013-02-11 14:32:00,22.0,16.0,29.96,NW,313,6.0,9.0,78,0.00,,,0.00,,2013-02-11 20:32:00,
2013-02-11 14:42:00,22.0,16.0,29.95,NW,316,6.0,10.0,78,0.00,,,0.00,,2013-02-11 20:42:00,
2013-02-11 14:52:00,22.0,16.0,29.95,NW,316,6.0,10.0,78,0.00,,,0.00,,2013-02-11 20:52:00,
2013-02-11 15:02:00,23.0,17.0,29.95,NW,314,5.0,9.0,78,0.00,,,0.00,,2013-02-11 21:02:00,
2013-02-11 15:11:00,23.0,17.0,29.95,WNW,294,5.0,10.0,78,0.00,,,0.00,,2013-02-11 21:11:00,
2013-02-11 15:22:00,23.0,17.0,29.95,WNW,294,5.0,10.0,78,0.00,,,0.00,,2013-02-11 21:22:00,
2013-02-11 15:32:00,23.0,17.0,29.95,NW,305,4.0,7.0,78,0.00,,,0.00,,2013-02-11 21:32:00,
2013-02-11 15:42:00,23.0,17.0,29.95,NW,305,4.0,7.0,78,0.00,,,0.00,,2013-02-11 21:42:00,
2013-02-11 15:52:00,23.0,17.0,29.95,WNW,290,4.0,9.0,78,0.00,,,0.00,,2013-02-11 21:52:00,
2013-02-11 16:02:00,23.0,17.0,29.95,WNW,283,4.0,7.0,78,0.00,,,0.00,,2013-02-11 22:02:00,
2013-02-11 16:11:00,22.0,16.0,29.95,WSW,257,4.0,7.0,77,0.00,,,0.00,,2013-02-11 22:11:00,
2013-02-11 16:22:00,22.0,16.0,29.95,WSW,257,4.0,7.0,77,0.00,,,0.00,,2013-02-11 22:22:00,
2013-02-11 16:32:00,22.0,16.0,29.95,WNW,285,3.0,6.0,77,0.00,,,0.00,,2013-02-11 22:32:00,
2013-02-11 16:42:00,22.0,16.0,29.95,WNW,285,3.0,6.0,77,0.00,,,0.00,,2013-02-11 22:42:00,
2013-02-11 16:52:00,23.0,17.0,29.95,West,271,3.0,7.0,76,0.00,,,0.00,,2013-02-11 22:52:00,
2013-02-11 17:01:00,23.0,17.0,29.95,West,273,4.0,8.0,78,0.00,,,0.00,,2013-02-11 23:01:00,
2013-02-11 17:11:00,23.0,17.0,29.95,West,273,4.0,8.0,78,0.00,,,0.00,,2013-02-11 23:11:00,
2013-02-11 17:21:00,21.0,16.0,29.95,West,269,3.0,7.0,80,0.00,,,0.00,,2013-02-11 23:21:00,
2013-02-11 17:32:00,20.0,15.0,29.95,West,281,2.0,4.0,81,0.00,,,0.00,,2013-02-11 23:32:00,
2013-02-11 17:42:00,20.0,15.0,29.95,West,281,2.0,4.0,81,0.00,,,0.00,,2013-02-11 23:42:00,
2013-02-11 17:52:00,18.0,14.0,29.95,West,276,1.0,4.0,84,0.00,,,0.00,,2013-02-11 23:52:00,
2013-02-11 18:02:00,19.0,16.0,29.95,WSW,255,3.0,4.0,86,0.00,,,0.00,,2013-02-12 00:02:00,
2013-02-11 18:11:00,19.0,16.0,29.95,WSW,255,3.0,4.0,86,0.00,,,0.00,,2013-02-12 00:11:00,
2013-02-11 18:22:00,19.0,16.0,29.95,West,278,4.0,7.0,87,0.00,,,0.00,,2013-02-12 00:22:00,
2013-02-11 18:32:00,20.0,16.0,29.96,WNW,282,5.0,10.0,85,0.00,,,0.00,,2013-02-12 00:32:00,
2013-02-11 18:42:00,20.0,16.0,29.96,WNW,282,5.0,10.0,85,0.00,,,0.00,,2013-02-12 00:42:00,
2013-02-11 18:52:00,19.0,15.0,29.96,West,273,5.0,8.0,85,0.00,,,0.00,,2013-02-12 00:52:00,
2013-02-11 19:02:00,17.0,13.0,29.96,West,269,6.0,9.0,84,0.00,,,0.00,,2013-02-12 01:02:00,
2013-02-11 19:11:00,17.0,13.0,29.96,West,269,6.0,9.0,84,0.00,,,0.00,,2013-02-12 01:11:00,
2013-02-11 19:21:00,16.0,13.0,29.95,West,278,6.0,9.0,86,0.00,,,0.00,,2013-02-12 01:21:00,
2013-02-11 19:32:00,16.0,12.0,29.96,West,276,3.0,6.0,85,0.00,,,0.00,,2013-02-12 01:32:00,
2013-02-11 19:42:00,16.0,12.0,29.96,West,276,3.0,6.0,85,0.00,,,0.00,,2013-02-12 01:42:00,
2013-02-11 19:52:00,16.0,12.0,29.95,West,272,2.0,5.0,85,0.00,,,0.00,,2013-02-12 01:52:00,
2013-02-11 20:01:00,16.0,13.0,29.95,SW,219,1.0,3.0,87,0.00,,,0.00,,2013-02-12 02:01:00,
2013-02-11 20:12:00,16.0,13.0,29.95,SW,219,1.0,3.0,87,0.00,,,0.00,,2013-02-12 02:12:00,
2013-02-11 20:21:00,15.0,12.0,29.95,WSW,257,5.0,7.0,86,0.00,,,0.00,,2013-02-12 02:21:00,
2013-02-11 20:31:00,15.0,11.0,29.95,West,262,4.0,7.0,84,0.00,,,0.00,,2013-02-12 02:31:00,
2013-02-11 20:41:00,15.0,11.0,29.95,West,262,4.0,7.0,84,0.00,,,0.00,,2013-02-12 02:41:00,
2013-02-11 20:52:00,14.0,10.0,29.94,SW,222,4.0,7.0,83,0.00,,,0.00,,2013-02-12 02:52:00,
2013-02-11 21:02:00,14.0,11.0,29.94,WSW,243,5.0,7.0,87,0.00,,,0.00,,2013-02-12 03:02:00,
2013-02-11 21:11:00,14.0,11.0,29.94,WSW,243,5.0,7.0,87,0.00,,,0.00,,2013-02-12 03:11:00,
2013-02-11 21:21:00,15.0,12.0,29.94,WSW,242,4.0,8.0,87,0.00,,,0.00,,2013-02-12 03:21:00,
2013-02-11 21:32:00,16.0,13.0,29.93,WSW,249,3.0,7.0,86,0.00,,,0.00,,2013-02-12 03:32:00,
2013-02-11 21:42:00,16.0,13.0,29.93,WSW,249,3.0,7.0,86,0.00,,,0.00,,2013-02-12 03:42:00,
2013-02-11 21:52:00,17.0,14.0,29.93,WSW,240,4.0,6.0,86,0.00,,,0.00,,2013-02-12 03:52:00,
2013-02-11 22:01:00,17.0,14.0,29.93,SW,222,4.0,7.0,86,0.00,,,0.00,,2013-02-12 04:01:00,
2013-02-11 22:11:00,17.0,14.0,29.93,SW,222,4.0,7.0,86,0.00,,,0.00,,2013-02-12 04:11:00,
2013-02-11 22:21:00,17.0,14.0,29.92,SSW,209,6.0,9.0,87,0.00,,,0.00,,2013-02-12 04:21:00,
2013-02-11 22:31:00,18.0,15.0,29.91,South,189,7.0,10.0,86,0.00,,,0.00,,2013-02-12 04:31:00,
2013-02-11 22:41:00,18.0,15.0,29.91,South,189,7.0,10.0,86,0.00,,,0.00,,2013-02-12 04:41:00,
2013-02-11 22:52:00,17.0,14.0,29.90,South,190,6.0,10.0,86,0.00,,,0.00,,2013-02-12 04:52:00,
2013-02-11 23:01:00,17.0,14.0,29.90,South,184,7.0,9.0,86,0.00,,,0.00,,2013-02-12 05:01:00,
2013-02-11 23:11:00,17.0,14.0,29.90,South,184,7.0,9.0,86,0.00,,,0.00,,2013-02-12 05:11:00,
2013-02-11 23:21:00,17.0,14.0,29.89,SSE,167,7.0,11.0,87,0.00,,,0.00,,2013-02-12 05:21:00,
2013-02-11 23:31:00,17.0,14.0,29.88,South,170,6.0,11.0,86,0.00,,,0.00,,2013-02-12 05:31:00,
2013-02-11 23:42:00,17.0,14.0,29.88,South,170,6.0,11.0,86,0.00,,,0.00,,2013-02-12 05:42:00,
2013-02-11 23:52:00,17.0,14.0,29.87,SSW,193,9.0,12.0,88,0.00,,,0.00,,2013-02-12 05:52:00,